Home   Weather   New Wilmington   Past weeks
Flag for USA

Past Weather in New Wilmington, Pennsylvania, USA — Yesterday and Last 2 Weeks

Now
28 °F

Clear.


Feels Like: 24 °F
Forecast: 40 / 28 °F
Wind: 3 mph from East

Location: New Castle, New Castle Municipal Airport

Current Time: Dec 12, 2019 at 9:59:01 pm

Latest Report: Dec 12, 2019 at 8:56 pm


Visibility: 10 mi

Pressure: 30.45 "Hg

Humidity: 72%

Dew Point: 20 °F

Location of New WilmingtonLocation

Past Weather in New Wilmington — Graph

°F

New Wilmington Temperature Yesterday

Maximum temperature yesterday: 27 °F (at 11:56 am)
Minimum temperature yesterday: 16 °F (at 11:56 pm)
Average temperature yesterday: 23 °F

High & Low Weather Summary for the Past Weeks

 TemperatureHumidityPressure
High55 °F (Dec 9, 9:43 pm)100% (Dec 1, 9:20 am)30.72 "Hg (Dec 1, 9:20 am)
Low9 °F (Dec 12, 4:56 am)48% (Nov 30, 8:56 pm)29.39 "Hg (Dec 1, 2:20 pm)
Average35 °F81%30.05 "Hg
* Reported Nov 27 8:56 pm — Dec 12 8:56 pm, New Wilmington. Weather by CustomWeather, © 2019

Note: Actual official high and low records may vary slightly from our data, if they occured in-between our weather recording intervals... More about our weather records

New Wilmington Weather History for the Previous 24 Hours

Scroll right to see more
 ConditionsComfort  
Time TempWeatherWind HumidityBarometerVisibility
8:56 pm
Thu, Dec 12
28 °FClear.3 mph72%30.45 "Hg10 mi
7:56 pm29 °FClear.3 mph69%30.47 "Hg10 mi
6:56 pm31 °FClear.7 mph67%30.48 "Hg10 mi
5:56 pm31 °FClear.7 mph69%30.51 "Hg10 mi
4:56 pm31 °FClear.5 mph67%30.55 "Hg10 mi
3:56 pm34 °FSunny.No wind56%30.56 "Hg10 mi
2:56 pm35 °FSunny.8 mph54%30.56 "Hg10 mi
1:56 pm34 °FSunny.6 mph56%30.60 "Hg10 mi
12:56 pm34 °FSunny.5 mph54%30.63 "Hg10 mi
11:56 am32 °FSunny.6 mph64%30.67 "Hg10 mi
10:56 am30 °FSunny.6 mph61%30.71 "Hg10 mi
9:56 am23 °FSunny.3 mph85%30.71 "Hg10 mi
8:56 am16 °FSunny.No wind92%30.71 "Hg8 mi
7:56 am14 °FSunny.No wind87%30.72 "Hg10 mi
6:56 am11 °FClear.3 mph92%30.71 "Hg10 mi
5:56 am9 °FClear.No wind88%30.71 "Hg9 mi
4:56 am9 °FClear.No wind91%30.70 "Hg8 mi
3:56 am10 °FClear.No wind88%30.69 "Hg10 mi
2:56 am12 °FClear.No wind92%30.71 "Hg10 mi
1:56 am13 °FClear.No wind88%30.69 "Hg10 mi
12:56 am15 °FClear.5 mph80%30.69 "Hg10 mi
11:56 pm
Wed, Dec 11
16 °FClear.5 mph74%30.68 "Hg10 mi
10:56 pm18 °FClear.5 mph74%30.66 "Hg10 mi
9:56 pm20 °FClear.9 mph68%30.66 "Hg10 mi
Weather by CustomWeather, © 2019

See weather overview

Advertising